sat.trackr.live / text

‹ back to catalog

SEMI-1P

NORAD 66298 · 2025-248F

PAYLOAD ACTIVE UNKNOWN

§ Identity

Operator
Country
TURK
Launch date
2025-11-02
Launch site
AFETR
Launch vehicle
Mass (kg)
RCS (m²)

External: N2YO · Heavens-Above · Gunter

§ Orbital elements

Epoch: 2026-05-23T00:36:26.879040Z

Period
94.69 min
Inclination
45.3794°
Eccentricity
0.0012944
Mean motion
15.20720044 rev/d
Perigee alt
494.8 km
Apogee alt
512.6 km
Semi-major
6,881.8 km
B*
1.0623e-4
RAAN
254.8111°
Arg perigee
250.4990°
Mean anomaly
109.4499°
Rev number
3,070

§ Raw data

SEMI-1P1 66298U 25248F   26143.02531110  .00002097  00000+0  10623-3 0  99932 66298  45.3794 254.8111 0012944 250.4990 109.4499 15.20720044 30707

JSON: /api/v1/satellites/66298 · /tle

For live sub-satellite position, see the globe view (requires WebGL).

§ Visibility from observer

Set your observer location to see the next 7 days of passes ≥ 10°. The values pass through the URL so the page stays shareable.

No JS? Fill the form by hand. The geolocation button needs JavaScript.